Weather History for Meridian NAS, MS

Change the Weather History Date:

Saturday, September 28, 2013

  Actual Average Record
Temperature  
Mean Temperature 69 °F -  
Max Temperature 82 °F 79 °F 88 °F (2012)
Min Temperature 57 °F 58 °F 46 °F (2000)
Cooling Degree Days 4    
Growing Degree Days 19 (Base 50)    
Moisture  
Dew Point 58 °F    
Average Humidity 75    
Maximum Humidity 94    
Minimum Humidity 45    
Precipitation  
Precipitation 0.00 in - - ()
Sea Level Pressure  
Sea Level Pressure 30.12 in    
Wind  
Wind Speed 2 mph (East)    
Max Wind Speed 10 mph    
Max Gust Speed 16 mph    
Visibility 9 miles    
Events      
Averages and records for this station are not official NWS values.
T = Trace of Precipitation, MM = Missing Value Source: NWS Daily Summary

Daily Weather History Graph

Daily Weather History Graph

Search for Another Location

Airport:

Trip Planner

Search our weather history database for the weather conditions in past years. The results will help you decide how hot, cold, wet, or windy it might be!

Date:

Astronomy

Sep. 28, 2013 Rise Set
Actual Time 6:46 AM CDT 6:42 PM CDT
Civil Twilight 6:21 AM CDT 7:07 PM CDT
Nautical Twilight 5:53 AM CDT 7:35 PM CDT
Astronomical Twilight 5:24 AM CDT 8:04 PM CDT
Moon 12:50 AM CDT (9/28) 2:45 PM CDT (9/28)
Length of Visible Light 12h 45m
Length of Day
11h 56m
Waning Crescent, 36% of the Moon is Illuminated
Sep 28
Waning Crescent
Oct 4
New
Oct 11
First Quarter
Oct 18
Full
Oct 26
Last Quarter

Hourly Weather History & Observations

Time (CDT) Temp. Heat Index Dew Point Humidity Pressure Visibility Wind Dir Wind Speed Gust Speed Precip Events Conditions
12:51 AM 62.6 °F - 60.8 °F 94% 30.07 in 2.0 mi Calm Calm - N/A   Clear
12:56 AM 62.1 °F - 60.1 °F 93% 30.09 in 4.0 mi Calm Calm - N/A   Clear
1:56 AM 61.0 °F - 57.9 °F 90% 30.09 in 9.0 mi Calm Calm - N/A   Clear
2:56 AM 59.0 °F - 57.0 °F 93% 30.09 in 9.0 mi Calm Calm - N/A   Clear
3:56 AM 57.9 °F - 55.9 °F 93% 30.09 in 10.0 mi East 3.5 mph - N/A   Clear
4:56 AM 57.9 °F - 55.9 °F 93% 30.10 in 10.0 mi Calm Calm - N/A   Clear
5:56 AM 57.0 °F - 55.0 °F 93% 30.12 in 10.0 mi Calm Calm - N/A   Clear
6:56 AM 57.0 °F - 55.0 °F 93% 30.14 in 8.0 mi Calm Calm - N/A   Clear
7:56 AM 62.1 °F - 57.0 °F 84% 30.17 in 10.0 mi Calm Calm - N/A   Clear
8:56 AM 66.0 °F - 59.0 °F 78% 30.18 in 10.0 mi ESE 5.8 mph - N/A   Clear
9:56 AM 71.1 °F - 59.0 °F 66% 30.18 in 10.0 mi ESE 6.9 mph - N/A   Clear
10:56 AM 75.9 °F - 59.0 °F 56% 30.17 in 10.0 mi ESE 8.1 mph - N/A   Clear
11:56 AM 79.0 °F - 57.9 °F 48% 30.17 in 10.0 mi SE 10.4 mph 16.1 mph N/A   Clear
12:56 PM 79.0 °F - 57.9 °F 48% 30.15 in 10.0 mi Variable 6.9 mph - N/A   Partly Cloudy
1:56 PM 81.0 °F 81.1 °F 57.9 °F 45% 30.12 in 10.0 mi East 8.1 mph - N/A   Partly Cloudy
2:56 PM 79.0 °F - 57.0 °F 47% 30.10 in 10.0 mi NE 6.9 mph - N/A   Clear
3:56 PM 81.0 °F 81.1 °F 57.9 °F 45% 30.09 in 10.0 mi NE 5.8 mph - N/A   Clear
4:56 PM 80.1 °F 80.6 °F 57.9 °F 47% 30.08 in 10.0 mi NE 5.8 mph - N/A   Partly Cloudy
5:56 PM 77.0 °F - 59.0 °F 54% 30.08 in 10.0 mi ENE 3.5 mph - N/A   Clear
6:56 PM 71.1 °F - 62.1 °F 73% 30.08 in 10.0 mi Calm Calm - N/A   Clear
7:56 PM 66.0 °F - 62.1 °F 87% 30.10 in 10.0 mi Calm Calm - N/A   Clear
8:56 PM 64.0 °F - 60.1 °F 87% 30.12 in 10.0 mi Calm Calm - N/A   Clear
9:56 PM 63.0 °F - 60.1 °F 90% 30.12 in 10.0 mi Calm Calm - N/A   Clear
10:56 PM 61.0 °F - 59.0 °F 93% 30.12 in 10.0 mi Calm Calm - N/A   Clear
11:56 PM 60.1 °F - 57.9 °F 93% 30.12 in 10.0 mi Calm Calm - N/A   Clear